Zurück zum Katalog

STARLINK-6243

AktivKommunikationVLEO
NORAD 57080·PAYLOAD·🇺🇸 United States

Gestartet Jun 22, 2023 von Vandenberg Space Force Base

Loading…

Nächste Überflüge (nächste 24 Stunden)

TLE

AktuellSource: CelesTrak SupGP

Epoche: Sep 14, 2026, 21:32 UTC

1 57080C 23088AJ  26257.89770833  .00001520  00000+0  55078-4 0  2571
2 57080  43.0013 107.8939 0001135 269.9948  89.5204 15.27568815    14

Verfolge STARLINK-6243 in Echtzeit mit AllMySat

Download on the App Store